Location: Roland
(31.1349°N, 85.4372°W)
Time: 19:40:35
(UTC+00:00)

SR - Pass Details

Date: 18 April 2021
Orbit: 573 x 882 km, 66.7° (Epoch: 13 May)

Event Time Altitude Azimuth Distance (km) Brightness Sun altitude
Rises 14:49:09 0° 265° (W) 3,318 ? 45.5°
Reaches altitude 10° 14:54:58 10° 312° (NW) 2,475 ? 46.7°
Maximum altitude 14:55:07 10° 314° (NW) 2,477 ? 46.8°
Drops below altitude 10° 14:55:16 10° 315° (NW) 2,479 ? 46.8°
Sets 15:01:19 0° 2° (N) 3,472 ? 48.0°
